sat.trackr.live / text

‹ back to catalog

ZHONGXING-9

NORAD 33051 · 2008-028A

PAYLOAD ACTIVE UNKNOWN

§ Identity

Operator
Country
PRC
Launch date
2008-06-09
Launch site
XICLF
Launch vehicle
Mass (kg)
RCS (m²)
19.95

Purposes: comms

External: N2YO · Heavens-Above · Gunter

§ Orbital elements

Epoch: 2026-05-22T23:08:19.254336Z

Period
1,436.14 min
Inclination
0.7062°
Eccentricity
0.0005039
Mean motion
1.00268620 rev/d
Perigee alt
35,766.2 km
Apogee alt
35,808.7 km
Semi-major
42,165.6 km
B*
0.0000e+0
RAAN
85.6067°
Arg perigee
310.6370°
Mean anomaly
283.7829°
Rev number
6,578

§ Raw data

ZHONGXING-91 33051U 08028A   26142.96411174 -.00000255  00000+0  00000+0 0  99992 33051   0.7062  85.6067 0005039 310.6370 283.7829  1.00268620 65788

JSON: /api/v1/satellites/33051 · /tle

For live sub-satellite position, see the globe view (requires WebGL).

§ Visibility from observer

Set your observer location to see the next 7 days of passes ≥ 10°. The values pass through the URL so the page stays shareable.

No JS? Fill the form by hand. The geolocation button needs JavaScript.